FW0014 Weather Reports


time (UTC)temp
C
wind
direction
speed
KPH
gust
KPH
rain 1hr
cm
rain 24hr
cm
rain mn
cm
humidity
%
barometer
mb
20260502194553 21 81 0.0 0.0 0.00 0.00 0.00 49 1023.0
20260502194328 21 45 0.0 0.0 0.00 0.00 0.00 50 1023.1
20260502194045 21 79 0.0 0.0 0.00 0.00 0.00 51 1023.0
20260502193842 21 39 0.0 0.0 0.00 0.00 0.00 50 1023.2
20260502193521 20 16 0.0 0.0 0.00 0.00 0.00 49 1023.1
20260502193318 21 34 0.0 0.0 0.00 0.00 0.00 52 1023.3
20260502193005 20 4 0.0 0.0 0.00 0.00 0.00 51 1023.0
20260502192815 20 43 0.0 0.0 0.00 0.00 0.00 51 1023.2
20260502192558 20 72 0.0 0.0 0.00 0.00 0.00 50 1023.0
20260502192332 21 11 0.0 0.0 0.00 0.00 0.00 49 1023.1
20260502192047 20 15 0.0 6.4 0.00 0.00 0.00 49 1023.1
20260502191828 21 354 0.0 6.4 0.00 0.00 0.00 48 1023.2
20260502191543 21 11 0.0 6.4 0.00 0.00 0.00 52 1023.1
20260502191322 21 10 0.0 0.0 0.00 0.00 0.00 51 1023.3
20260502191031 21 13 0.0 6.4 0.00 0.00 0.00 53 1023.1
20260502190816 21 45 0.0 6.4 0.00 0.00 0.00 55 1023.2
20260502190556 20 58 0.0 12.9 0.00 0.00 0.00 55 1023.1
20260502190332 20 35 1.6 17.7 0.00 0.00 0.00 55 1023.2
20260502190050 20 48 3.2 24.1 0.00 0.00 0.00 53 1023.2
20260502185829 20 354 6.4 24.1 0.00 0.20 0.00 53 1023.3
20260502185539 20 50 14.5 24.1 0.00 0.20 0.00 54 1023.2
20260502185326 20 4 14.5 24.1 0.00 0.20 0.00 54 1023.3
20260502185031 20 354 12.9 22.5 0.00 0.20 0.00 54 1023.2
20260502184841 20 31 8.0 19.3 0.00 0.20 0.00 54 1023.3
20260502184556 20 335 11.3 22.5 0.00 0.20 0.00 53 1023.2
20260502184315 20 11 9.7 22.5 0.00 0.20 0.00 52 1023.4
20260502184047 20 61 9.7 22.5 0.00 0.20 0.00 53 1023.3
20260502183851 20 93 9.7 19.3 0.00 0.20 0.00 56 1023.4
20260502183513 20 97 6.4 20.9 0.00 0.20 0.00 54 1023.2
20260502183327 20 12 8.0 20.9 0.00 0.20 0.00 55 1023.4
20260502183003 20 47 12.9 20.9 0.00 0.20 0.00 55 1023.3
20260502182556 20 48 8.0 19.3 0.00 0.20 0.00 52 1023.3
20260502182317 20 44 8.0 19.3 0.00 0.20 0.00 56 1023.4
20260502182048 20 42 6.4 19.3 0.00 0.20 0.00 55 1023.3
20260502181833 20 19 4.8 19.3 0.00 0.20 0.00 56 1023.5
20260502181540 20 24 12.9 19.3 0.00 0.20 0.00 55 1023.5
20260502181328 20 21 11.3 17.7 0.00 0.20 0.00 58 1023.7
20260502181029 20 347 8.0 17.7 0.00 0.20 0.00 58 1023.5
20260502180824 20 326 9.7 17.7 0.00 0.20 0.00 56 1023.7
20260502180522 19 339 11.3 17.7 0.00 0.20 0.00 56 1023.6
20260502180319 20 313 8.0 14.5 0.00 0.20 0.00 57 1023.8
20260502170328 18 4 6.4 16.1 0.00 0.41 0.00 65 1024.6
20260502164326 17 343 3.2 17.7 0.00 0.43 0.00 68 1024.8
20260502164007 17 65 8.0 17.7 0.00 0.43 0.00 67 1024.8
20260502163822 17 15 4.8 17.7 0.00 0.43 0.00 68 1024.8
20260502163501 17 4 8.0 12.9 0.00 0.43 0.00 69 1024.8
20260502163318 17 335 4.8 12.9 0.00 0.43 0.00 70 1024.8
20260502163057 17 343 8.0 12.9 0.00 0.43 0.00 68 1024.8
20260502162853 17 359 8.0 16.1 0.00 0.43 0.00 68 1024.8
20260502162516 17 27 3.2 16.1 0.00 0.43 0.00 68 1024.9
20260502162329 17 33 8.0 16.1 0.00 0.43 0.00 67 1024.9
20260502162007 17 18 0.0 17.7 0.00 0.43 0.00 71 1024.9
20260502161823 17 247 1.6 17.7 0.00 0.43 0.00 69 1024.9
20260502161503 17 289 6.4 17.7 0.00 0.43 0.00 68 1024.9
20260502161341 17 337 11.3 17.7 0.00 0.43 0.00 69 1025.0
20260502161035 17 345 6.4 14.5 0.00 0.43 0.00 69 1024.9
20260502160835 17 330 3.2 16.1 0.00 0.43 0.00 69 1024.9
20260502160602 16 317 3.2 16.1 0.00 0.43 0.00 69 1024.9
20260502160330 17 354 3.2 16.1 0.00 0.43 0.00 70 1025.0
20260502152321 16 278 4.8 9.7 0.00 0.43 0.00 74 1024.5
20260502152045 15 294 4.8 12.9 0.00 0.43 0.00 74 1024.4
20260502151818 15 307 3.2 16.1 0.00 0.43 0.00 74 1024.4
20260502151558 15 289 6.4 16.1 0.00 0.43 0.00 74 1024.5
20260502151333 15 304 8.0 16.1 0.00 0.43 0.00 74 1024.4
20260502151033 15 359 8.0 16.1 0.00 0.43 0.00 73 1024.5
20260502150851 15 303 8.0 14.5 0.00 0.43 0.00 75 1024.5
20260502150558 15 312 6.4 9.7 0.00 0.43 0.00 75 1024.6
20260502150326 15 276 4.8 9.7 0.00 0.43 0.00 76 1024.5
20260502130545 10 248 1.6 4.8 0.00 0.94 0.00 91 1023.8
20260502130327 10 248 3.2 4.8 0.00 0.94 0.00 91 1023.6
20260502123530 8 249 3.2 6.4 0.00 1.04 0.00 91 1023.5
20260502123321 8 249 4.8 6.4 0.00 1.04 0.00 91 1023.4
20260502123026 8 249 4.8 6.4 0.00 1.04 0.00 91 1023.4
20260502122816 8 249 4.8 6.4 0.00 1.04 0.00 91 1023.3
20260502122511 8 249 3.2 6.4 0.00 1.04 0.00 91 1023.2
20260502122332 8 249 3.2 6.4 0.00 1.04 0.00 91 1023.2
20260502122043 8 249 3.2 6.4 0.00 1.04 0.00 91 1023.2
20260502121825 8 249 4.8 6.4 0.00 1.04 0.00 90 1023.1
20260502121540 7 249 3.2 6.4 0.00 1.04 0.00 90 1023.1
20260502121322 8 249 4.8 6.4 0.00 1.04 0.00 90 1023.0
20260502121029 7 249 3.2 4.8 0.00 1.04 0.00 90 1022.9
20260502120817 8 249 3.2 6.4 0.00 1.04 0.00 90 1022.8
20260502120553 8 249 3.2 6.4 0.00 1.04 0.00 90 1022.6
20260502120332 8 249 3.2 6.4 0.00 1.04 0.00 90 1022.6
20260502115825 8 249 3.2 4.8 0.00 1.14 0.00 90 1022.5
20260502115537 8 249 3.2 6.4 0.00 1.14 0.00 90 1022.4
20260502115320 8 249 3.2 6.4 0.00 1.14 0.00 90 1022.3
20260502115029 8 249 3.2 6.4 0.00 1.14 0.00 90 1022.2
20260502114816 8 249 4.8 6.4 0.00 1.14 0.00 90 1022.3
20260502114514 8 254 3.2 4.8 0.00 1.14 0.00 90 1022.3
20260502114349 8 359 3.2 4.8 0.00 1.14 0.00 90 1022.3
20260502114047 8 314 3.2 4.8 0.00 1.14 0.00 90 1022.2
20260502113821 8 314 3.2 4.8 0.00 1.14 0.00 90 1022.2
20260502113541 8 359 1.6 4.8 0.00 1.14 0.00 90 1022.1
20260502113317 8 314 3.2 4.8 0.00 1.14 0.00 90 1022.0
20260502113045 8 314 1.6 6.4 0.00 1.14 0.00 90 1021.9
20260502112832 8 314 3.2 6.4 0.00 1.14 0.00 90 1022.0
20260502112516 8 328 3.2 6.4 0.00 1.14 0.00 90 1021.9
20260502112328 8 310 4.8 6.4 0.00 1.14 0.00 90 1022.0
20260502112011 8 307 3.2 6.4 0.00 1.14 0.00 90 1021.8
20260502111946 8 308 4.8 6.4 0.00 1.14 0.00 91 1021.9
20260502111549 8 359 3.2 6.4 0.00 1.14 0.00 91 1021.8
20260502111327 8 359 3.2 6.4 0.00 1.14 0.00 91 1021.7
20260502111039 8 312 3.2 6.4 0.00 1.14 0.00 91 1021.7
20260502110823 8 359 3.2 6.4 0.00 1.14 0.00 91 1021.6
20260502110533 8 312 3.2 6.4 0.00 1.14 0.00 91 1021.7
20260502110318 8 312 3.2 6.4 0.00 1.14 0.00 91 1021.5
20260502110034 8 312 3.2 8.0 0.00 1.14 0.00 91 1021.4
20260502105832 8 311 4.8 8.0 0.00 1.27 0.00 91 1021.5
20260502105511 8 312 3.2 8.0 0.00 1.27 0.00 91 1021.4
20260502105327 8 312 4.8 8.0 0.00 1.27 0.00 91 1021.3
20260502105003 8 312 3.2 6.4 0.00 1.27 0.00 91 1021.3
20260502104822 8 312 3.2 6.4 0.00 1.27 0.00 91 1021.3
20260502104557 8 312 3.2 6.4 0.00 1.27 0.00 91 1021.1
20260502104339 8 312 4.8 8.0 0.00 1.27 0.00 91 1021.1
20260502104028 8 312 1.6 8.0 0.00 1.27 0.00 91 1021.0
20260502103814 8 359 4.8 8.0 0.00 1.27 0.00 91 1021.0
20260502103521 8 312 4.8 8.0 0.00 1.27 0.00 91 1020.8
20260502103331 8 323 3.2 6.4 0.00 1.27 0.00 91 1020.9
20260502103005 8 330 1.6 6.4 0.00 1.27 0.00 91 1020.9
20260502102826 8 329 3.2 6.4 0.00 1.27 0.00 91 1020.7
20260502102602 8 330 3.2 6.4 0.00 1.27 0.00 91 1020.7
20260502102322 8 329 4.8 6.4 0.00 1.27 0.00 91 1020.7
20260502102052 8 339 3.2 4.8 0.00 1.27 0.00 91 1020.6
20260502101817 8 339 3.2 4.8 0.00 1.27 0.00 91 1020.7
20260502101557 8 339 1.6 4.8 0.00 1.27 0.00 91 1020.6
20260502101353 8 339 3.2 4.8 0.00 1.27 0.00 91 1020.6
20260502101010 8 339 3.2 4.8 0.00 1.27 0.00 91 1020.5
20260502100827 8 339 3.2 4.8 0.00 1.27 0.00 91 1020.5
20260502100502 8 339 1.6 4.8 0.00 1.27 0.00 91 1020.6
20260502100323 8 339 3.2 4.8 0.00 1.27 0.00 91 1020.6
20260502100103 8 339 3.2 4.8 0.00 1.27 0.00 91 1020.4
20260502091319 8 359 3.2 6.4 0.00 1.47 0.00 91 1020.6
20260502091051 8 339 1.6 6.4 0.00 1.45 0.00 91 1020.5
20260502090817 8 339 3.2 6.4 0.00 1.47 0.00 91 1020.8
20260502090542 8 339 1.6 6.4 0.00 1.45 0.00 91 1020.5
20260502090333 8 339 4.8 6.4 0.00 1.47 0.00 91 1020.6
20260502071316 9 332 4.8 6.4 0.00 1.68 0.00 90 1020.8
20260502071040 8 359 3.2 6.4 0.00 1.68 0.00 90 1020.6
20260502070831 9 331 3.2 6.4 0.00 1.68 0.00 90 1020.8
20260502070526 8 359 3.2 6.4 0.00 1.68 0.00 90 1020.7
20260502070326 9 332 4.8 6.4 0.00 1.68 0.00 90 1020.8
20260502070037 9 334 3.2 8.0 0.00 1.68 0.00 90 1020.6
20260502065822 9 333 4.8 8.0 0.00 1.68 0.00 90 1020.8
20260502065515 9 359 3.2 8.0 0.00 1.68 0.00 89 1020.6
20260502065316 10 324 4.8 8.0 0.00 1.68 0.00 89 1020.8
20260502065059 9 23 3.2 6.4 0.00 1.68 0.00 89 1020.6
20260502064832 10 23 1.6 6.4 0.00 1.68 0.00 89 1020.9
20260502064604 9 23 3.2 6.4 0.00 1.68 0.00 89 1020.6
20260502064328 10 23 3.2 6.4 0.00 1.68 0.00 89 1020.7
20260502064042 9 23 4.8 6.4 0.00 1.68 0.00 89 1020.5
20260502063824 10 23 4.8 6.4 0.00 1.68 0.00 89 1020.6
20260502063536 9 23 1.6 6.4 0.00 1.68 0.00 89 1020.4
20260502063320 10 23 3.2 6.4 0.00 1.68 0.00 89 1020.5
20260502063039 9 23 3.2 6.4 0.00 1.68 0.00 89 1020.2
20260502062815 10 23 3.2 6.4 0.00 1.68 0.00 89 1020.5
20260502062515 9 23 1.6 6.4 0.00 1.68 0.00 89 1020.1
20260502062331 10 23 3.2 6.4 0.00 1.68 0.00 89 1020.4
20260502062010 9 23 3.2 6.4 0.00 1.68 0.00 90 1020.2
20260502061846 10 359 3.2 6.4 0.00 1.68 0.00 90 1020.4
20260502061541 9 359 3.2 6.4 0.00 1.68 0.00 90 1020.3
20260502061321 10 21 4.8 6.4 0.00 1.68 0.00 90 1020.4
20260502061032 9 354 3.2 12.9 0.00 1.68 0.00 90 1020.4
20260502060816 10 359 4.8 12.9 0.00 1.68 0.00 90 1020.5
20260502060518 9 15 3.2 12.9 0.00 1.68 0.00 90 1020.4
20260502060331 10 350 4.8 12.9 0.00 1.68 0.00 90 1020.6
20260502060115 9 18 4.8 12.9 0.00 1.68 0.00 90 1020.4
20260502055820 10 347 4.8 12.9 0.00 1.70 0.00 91 1020.6
20260502055530 9 359 4.8 9.7 0.00 1.70 0.00 90 1020.4
20260502055317 9 337 4.8 6.4 0.00 1.70 0.00 90 1020.7
20260502055027 9 347 3.2 6.4 0.00 1.70 0.00 90 1020.3
20260502054833 10 359 3.2 6.4 0.00 1.70 0.00 90 1020.6
20260502054526 9 341 1.6 4.8 0.00 1.70 0.00 90 1020.3
20260502054349 10 341 3.2 4.8 0.00 1.70 0.00 90 1020.6
20260502054046 9 359 1.6 4.8 0.00 1.70 0.00 90 1020.5
20260502053823 10 359 3.2 6.4 0.00 1.70 0.00 90 1020.7
20260502053532 9 359 1.6 6.4 0.00 1.70 0.00 90 1020.5
20260502053318 10 359 3.2 6.4 0.00 1.70 0.00 90 1020.7
20260502053024 9 359 3.2 6.4 0.00 1.70 0.00 90 1020.5
20260502052836 10 330 3.2 6.4 0.00 1.70 0.00 90 1020.7
20260502052550 10 359 3.2 8.0 0.00 1.70 0.00 90 1020.4
20260502052351 10 359 3.2 8.0 0.00 1.70 0.00 90 1020.7
20260502052014 10 359 1.6 8.0 0.00 1.70 0.00 90 1020.4
20260502051846 10 359 4.8 8.0 0.00 1.70 0.00 90 1020.6
20260502051548 10 359 3.2 8.0 0.00 1.70 0.00 90 1020.3
20260502051319 10 345 4.8 6.4 0.00 1.70 0.00 90 1020.5
20260502051040 10 13 3.2 6.4 0.00 1.70 0.00 89 1020.2
20260502050836 10 13 3.2 6.4 0.00 1.70 0.00 89 1020.4
20260502050505 10 13 1.6 6.4 0.00 1.70 0.00 89 1020.1
20260502050330 10 13 3.2 6.4 0.00 1.70 0.00 89 1020.4
20260502045819 10 13 1.6 4.8 0.00 1.70 1.70 90 1020.5
20260502045509 10 13 1.6 6.4 0.00 1.70 1.70 90 1020.1
20260502045313 10 13 3.2 6.4 0.00 1.70 1.70 90 1020.4
20260502045001 10 13 3.2 6.4 0.00 1.70 1.70 90 1020.0
20260502044829 10 354 3.2 6.4 0.00 1.70 1.70 90 1020.3
20260502044556 10 354 1.6 6.4 0.00 1.70 1.70 90 1020.1
20260502044324 10 359 3.2 4.8 0.00 1.70 1.70 90 1020.4
20260502044046 10 354 1.6 4.8 0.00 1.70 1.70 89 1020.1
20260502043819 10 359 3.2 6.4 0.00 1.70 1.70 90 1020.5
20260502043538 10 359 1.6 6.4 0.00 1.70 1.70 90 1020.3
20260502043335 10 354 3.2 6.4 0.00 1.70 1.70 90 1020.6
20260502043005 10 359 3.2 6.4 0.00 1.70 1.70 90 1020.0
20260502042828 10 354 3.2 6.4 0.00 1.70 1.70 90 1020.4
20260502042604 10 354 1.6 8.0 0.00 1.70 1.70 90 1020.2
20260502042326 10 354 3.2 8.0 0.00 1.70 1.70 90 1020.4
20260502042055 10 359 3.2 8.0 0.00 1.70 1.70 90 1020.1
20260502041822 10 349 4.8 8.0 0.00 1.70 1.70 90 1020.4
20260502041557 10 343 3.2 8.0 0.00 1.70 1.70 89 1020.0
20260502041316 10 359 3.2 8.0 0.00 1.70 1.70 89 1020.5
20260502041043 10 344 3.2 8.0 0.00 1.70 1.70 89 1020.2
20260502040827 10 354 3.2 8.0 0.00 1.70 1.70 89 1020.4
20260502040532 10 359 3.2 8.0 0.00 1.70 1.70 89 1020.0
20260502040323 10 354 4.8 8.0 0.00 1.70 1.70 89 1020.4
20260502040029 10 45 3.2 8.0 0.00 1.70 1.70 89 1020.1
20260502035818 11 45 3.2 8.0 0.00 1.70 1.70 89 1020.4
20260502035518 10 45 3.2 6.4 0.00 1.70 1.70 89 1020.0
20260502035314 11 45 3.2 6.4 0.00 1.70 1.70 89 1020.3
20260502035002 10 45 3.2 6.4 0.00 1.70 1.70 89 1019.9
20260502034828 11 45 3.2 6.4 0.00 1.70 1.70 89 1020.3
20260502034558 10 45 1.6 6.4 0.00 1.70 1.70 89 1020.0
20260502034324 11 45 3.2 6.4 0.00 1.70 1.70 89 1020.3
20260502034054 10 45 3.2 6.4 0.00 1.70 1.70 89 1020.0
20260502033821 11 45 3.2 4.8 0.00 1.70 1.70 89 1020.4
20260502033544 11 45 1.6 4.8 0.00 1.70 1.70 88 1020.0
20260502033318 11 45 1.6 4.8 0.00 1.70 1.70 88 1020.3
20260502033039 11 45 1.6 4.8 0.00 1.70 1.70 88 1019.9
20260502032814 11 45 1.6 4.8 0.00 1.70 1.70 88 1020.3
20260502032530 11 45 1.6 4.8 0.00 1.70 1.70 88 1020.0
20260502032331 11 45 1.6 4.8 0.00 1.70 1.70 88 1020.3
20260502032010 11 45 1.6 4.8 0.00 1.70 1.70 88 1020.0
20260502031825 11 45 1.6 4.8 0.00 1.70 1.70 88 1020.3
20260502031543 11 45 1.6 4.8 0.00 1.70 1.70 88 1020.0
20260502031340 11 45 3.2 4.8 0.00 1.70 1.70 88 1020.3
20260502031004 11 45 0.0 4.8 0.00 1.70 1.70 88 1019.8
20260502030814 11 45 1.6 4.8 0.00 1.70 1.70 88 1020.1
20260502030558 11 45 0.0 6.4 0.00 1.70 1.70 88 1019.6
20260502030330 11 45 1.6 6.4 0.00 1.70 1.70 87 1019.9
20260502030056 11 45 1.6 6.4 0.00 1.70 1.70 87 1019.4
20260502025846 11 45 4.8 6.4 0.00 1.75 1.70 87 1019.9
20260502025526 11 45 3.2 6.4 0.00 1.75 1.70 87 1019.5
20260502025321 11 45 3.2 8.0 0.00 1.75 1.70 87 1019.9
20260502025020 11 45 1.6 8.0 0.00 1.75 1.70 87 1019.5
20260502024817 12 45 3.2 12.9 0.00 1.75 1.70 87 1019.9
20260502024611 11 45 1.6 12.9 0.00 1.75 1.70 87 1019.4
20260502024353 12 35 3.2 12.9 0.00 1.75 1.70 87 1019.7
20260502024038 11 39 4.8 12.9 0.00 1.75 1.70 86 1019.4
20260502023828 12 26 4.8 9.7 0.00 1.75 1.70 87 1019.8
20260502023531 12 43 4.8 9.7 0.00 1.75 1.70 87 1019.4
20260502023344 12 359 4.8 9.7 0.00 1.75 1.70 87 1019.8
20260502023126 12 20 4.8 9.7 0.00 1.75 1.70 87 1019.5
20260502022820 12 4 4.8 9.7 0.00 1.75 1.70 87 1019.9
20260502022549 12 18 4.8 9.7 0.00 1.75 1.70 87 1019.4
20260502022315 12 10 3.2 9.7 0.00 1.75 1.70 87 1019.6
20260502022044 12 359 6.4 9.7 0.00 1.75 1.70 87 1019.2
20260502021832 12 21 6.4 12.9 0.00 1.75 1.70 87 1019.6
20260502021536 12 22 4.8 14.5 0.00 1.75 1.70 87 1019.1
20260502021328 12 12 6.4 14.5 0.00 1.75 1.70 87 1019.4
20260502021030 12 359 4.8 14.5 0.00 1.75 1.70 87 1019.1
20260502020826 12 354 8.0 14.5 0.00 1.75 1.70 87 1019.4
20260502020527 12 25 4.8 9.7 0.00 1.75 1.70 87 1019.1
20260502020341 12 4 4.8 9.7 0.00 1.75 1.70 87 1019.4
20260502020053 12 359 4.8 8.0 0.00 1.75 1.70 87 1019.0
20260502015815 12 354 4.8 8.0 0.00 1.75 1.70 87 1019.3
20260502015544 12 350 4.8 12.9 0.00 1.75 1.70 87 1018.9
20260502015331 12 11 4.8 12.9 0.00 1.75 1.70 87 1019.3
20260502015036 12 24 4.8 12.9 0.00 1.75 1.70 87 1018.8
20260502014827 12 4 6.4 12.9 0.00 1.75 1.70 87 1019.0
20260502014528 12 28 4.8 8.0 0.00 1.75 1.70 87 1018.6
20260502014323 12 35 4.8 12.9 0.00 1.75 1.70 87 1018.9
20260502014019 12 52 4.8 12.9 0.00 1.75 1.70 87 1018.5
20260502013817 12 39 4.8 12.9 0.00 1.75 1.70 86 1018.9
20260502013502 12 12 4.8 9.7 0.00 1.75 1.70 86 1018.5
20260502013350 12 30 4.8 9.7 0.00 1.75 1.70 86 1018.9
20260502013038 12 32 3.2 9.7 0.00 1.75 1.70 86 1018.5
20260502012824 12 25 6.4 9.7 0.00 1.75 1.70 86 1018.7
20260502012532 12 23 3.2 8.0 0.00 1.75 1.70 86 1018.3
20260502012320 12 23 4.8 8.0 0.00 1.75 1.70 86 1018.6
20260502012022 12 23 1.6 6.4 0.00 1.75 1.70 87 1018.1
20260502011815 12 8 3.2 8.0 0.00 1.75 1.70 86 1018.5
20260502011513 12 11 3.2 8.0 0.00 1.75 1.70 86 1017.9
20260502011331 12 27 4.8 9.7 0.00 1.75 1.70 86 1018.4
20260502011056 12 18 3.2 9.7 0.00 1.75 1.70 86 1017.9
20260502010826 12 14 4.8 9.7 0.00 1.75 1.70 86 1018.4
20260502010548 12 14 3.2 14.5 0.00 1.75 1.70 86 1017.9
20260502010321 12 15 4.8 14.5 0.00 1.75 1.70 86 1018.2
20260502010038 12 8 3.2 14.5 0.00 1.75 1.70 86 1017.7
20260502005816 12 18 8.0 14.5 0.00 1.75 1.70 85 1018.0
20260502005534 12 26 4.8 14.5 0.00 1.75 1.70 85 1017.4
20260502005332 12 42 8.0 14.5 0.00 1.75 1.70 85 1017.9
20260502005015 12 43 6.4 11.3 0.00 1.75 1.70 85 1017.4
20260502004826 12 39 6.4 11.3 0.00 1.75 1.70 86 1017.8
20260502004504 12 62 3.2 17.7 0.00 1.75 1.70 85 1017.5
20260502004323 12 30 4.8 17.7 0.00 1.75 1.70 86 1017.9
20260502004057 12 18 4.8 17.7 0.00 1.75 1.70 85 1017.3
20260502003818 12 35 8.0 17.7 0.00 1.75 1.70 85 1017.7
20260502003550 12 62 8.0 16.1 0.00 1.75 1.70 85 1017.2
20260502003314 12 61 6.4 12.9 0.00 1.75 1.70 85 1017.6
20260502003042 12 46 6.4 14.5 0.00 1.75 1.70 85 1017.2
20260502002831 12 24 6.4 14.5 0.00 1.75 1.70 85 1017.6
20260502002532 12 84 6.4 14.5 0.00 1.75 1.70 85 1017.0
20260502002325 12 57 9.7 19.3 0.00 1.75 1.70 85 1017.4
20260502002026 12 60 6.4 20.9 0.00 1.75 1.70 85 1016.8
20260502001841 12 43 8.0 20.9 0.00 1.75 1.70 85 1017.2
20260502001615 12 89 6.4 20.9 0.00 1.75 1.70 85 1016.8
20260502001337 12 22 12.9 22.5 0.00 1.75 1.70 84 1017.3
20260502001022 12 63 9.7 22.5 0.00 1.75 1.70 84 1016.7
20260502000831 12 62 12.9 22.5 0.00 1.75 1.70 84 1017.1
20260502000510 12 43 9.7 22.5 0.00 1.75 1.70 84 1016.8
20260502000347 13 48 12.9 22.5 0.00 1.75 1.70 84 1017.2
20260502000101 12 65 9.7 22.5 0.00 1.75 1.70 84 1016.7
20260501235820 13 24 9.7 22.5 0.00 1.75 1.70 85 1017.1
20260501235533 12 43 9.7 17.7 0.00 1.75 1.70 85 1016.6
20260501235315 13 69 11.3 22.5 0.00 1.75 1.70 85 1017.0
20260501235033 12 45 9.7 27.4 0.00 1.75 1.70 85 1016.5
20260501234831 13 58 6.4 27.4 0.00 1.75 1.70 84 1016.8
20260501234508 12 67 11.3 27.4 0.00 1.75 1.70 83 1016.4
20260501234327 13 56 11.3 25.7 0.00 1.75 1.70 84 1016.9
20260501234004 12 48 8.0 25.7 0.00 1.75 1.70 84 1016.3
20260501233824 13 31 11.3 25.7 0.00 1.75 1.70 84 1016.9
20260501233558 12 80 9.7 22.5 0.00 1.75 1.70 84 1016.4
20260501233319 13 77 12.9 22.5 0.00 1.75 1.70 84 1016.9
20260501233052 12 73 11.3 22.5 0.00 1.75 1.70 85 1016.3
20260501232833 13 27 12.9 25.7 0.00 1.75 1.70 85 1016.7
20260501232545 12 29 11.3 25.7 0.00 1.75 1.70 85 1016.3
20260501232349 13 65 9.7 25.7 0.00 1.75 1.70 85 1016.7
20260501232012 12 28 9.7 22.5 0.00 1.75 1.70 86 1016.2
20260501231824 13 47 11.3 22.5 0.00 1.75 1.70 86 1016.7
20260501231609 12 39 12.9 22.5 0.00 1.75 1.70 86 1016.2
20260501231322 13 62 8.0 20.9 0.00 1.75 1.70 88 1016.6
20260501231052 12 48 8.0 20.9 0.00 1.75 1.70 87 1016.3
20260501230816 12 68 11.3 20.9 0.00 1.75 1.70 88 1016.7
20260501230544 12 52 9.7 20.9 0.00 1.75 1.70 87 1016.1
20260501230332 12 21 11.3 17.7 0.00 1.75 1.70 87 1016.5
20260501230039 12 66 6.4 19.3 0.00 1.75 1.70 88 1016.2
20260501225827 12 50 11.3 19.3 0.00 1.91 1.70 88 1016.5
20260501225528 12 36 11.3 19.3 0.00 1.91 1.70 88 1016.1
20260501225323 12 23 12.9 19.3 0.00 1.91 1.70 88 1016.4
20260501225017 12 63 9.7 19.3 0.00 1.91 1.70 89 1015.9
20260501224818 12 37 8.0 19.3 0.00 1.91 1.70 89 1016.5
20260501224504 12 59 11.3 20.9 0.00 1.91 1.70 89 1016.0
20260501224329 12 54 12.9 20.9 0.00 1.91 1.70 89 1016.5
20260501224057 12 83 9.7 20.9 0.00 1.91 1.70 89 1016.0
20260501223825 12 62 12.9 20.9 0.00 1.91 1.70 89 1016.6
20260501223550 11 359 11.3 20.9 0.00 1.91 1.70 89 1016.1
20260501223340 12 39 11.3 17.7 0.00 1.91 1.70 89 1016.6
20260501223020 11 67 11.3 19.3 0.00 1.91 1.70 89 1016.0
20260501222816 12 16 6.4 24.1 0.00 1.91 1.70 90 1016.7
20260501222515 11 35 8.0 24.1 0.00 1.91 1.70 89 1016.2
20260501222329 11 31 11.3 24.1 0.00 1.91 1.70 89 1016.6
20260501222046 11 15 11.3 25.7 0.00 1.91 1.70 89 1015.9
20260501221832 11 16 12.9 25.7 0.00 1.91 1.70 89 1016.4
20260501221526 11 48 14.5 27.4 0.00 1.91 1.70 89 1015.7
20260501221320 11 54 11.3 27.4 0.00 1.91 1.70 88 1016.2
20260501221018 11 39 14.5 32.2 0.00 1.91 1.70 88 1015.8
20260501220815 11 27 16.1 32.2 0.00 1.91 1.70 88 1016.4
20260501220513 11 44 17.7 35.4 0.00 1.91 1.70 88 1016.0
20260501220330 11 4 20.9 35.4 0.00 1.91 1.70 88 1016.5
20260501220058 11 359 14.5 35.4 0.00 1.91 1.70 89 1016.1
20260501215826 11 348 17.7 35.4 0.00 1.91 1.70 89 1016.7
20260501215550 11 35 12.9 29.0 0.00 1.91 1.70 90 1016.2
20260501215320 11 359 17.7 32.2 0.00 1.91 1.70 90 1016.7
20260501215042 11 354 11.3 32.2 0.00 1.91 1.70 90 1016.1
20260501214833 11 4 16.1 32.2 0.00 1.91 1.70 90 1016.7
20260501214534 11 359 16.1 32.2 0.00 1.91 1.70 90 1016.2
20260501214349 12 359 22.5 32.2 0.00 1.91 1.70 89 1016.7
20260501214059 11 15 19.3 43.5 0.00 1.91 1.70 89 1016.2
20260501213825 12 14 19.3 43.5 0.00 1.91 1.70 89 1016.7
20260501213549 12 350 20.9 43.5 0.00 1.91 1.70 90 1016.1
20260501213321 12 359 19.3 29.0 0.00 1.91 1.70 90 1016.7
20260501213046 12 341 12.9 25.7 0.00 1.91 1.70 91 1016.0
20260501212817 12 339 12.9 25.7 0.00 1.91 1.70 91 1016.4
20260501212534 12 4 11.3 30.6 0.00 1.91 1.70 91 1015.8
20260501212332 12 308 12.9 33.8 0.00 1.91 1.70 91 1016.4
20260501212018 12 359 16.1 33.8 0.00 1.91 1.70 91 1015.6
20260501211849 12 354 20.9 33.8 0.00 1.91 1.70 91 1016.1
20260501211550 12 28 17.7 33.8 0.00 1.91 1.70 91 1015.4
20260501211343 12 359 16.1 27.4 0.00 1.91 1.70 91 1015.9
20260501211019 12 349 17.7 27.4 0.00 1.91 1.70 91 1015.3
20260501210820 12 8 14.5 32.2 0.00 1.91 1.70 91 1015.9
20260501210501 12 339 16.1 32.2 0.00 1.91 1.70 91 1015.3
20260501210337 12 11 16.1 32.2 0.00 1.91 1.70 91 1016.0
20260501210033 12 346 16.1 32.2 0.00 1.91 1.70 91 1015.2
20260501205834 12 359 17.7 32.2 0.00 2.11 1.70 91 1015.8
20260501205531 12 8 17.7 27.4 0.00 2.11 1.70 91 1015.3
20260501205328 12 34 17.7 27.4 0.00 2.11 1.70 91 1015.8
20260501205023 12 19 19.3 27.4 0.00 2.11 1.70 91 1015.1
20260501204824 12 11 17.7 27.4 0.00 2.11 1.70 91 1015.8
20260501204506 12 20 16.1 27.4 0.00 2.11 1.70 91 1015.3
20260501204321 12 359 19.3 27.4 0.00 2.11 1.70 91 1015.8
20260501204059 12 359 14.5 38.6 0.00 2.11 1.70 91 1015.0
20260501203816 12 4 17.7 38.6 0.00 2.11 1.70 91 1015.6
20260501203551 12 346 17.7 38.6 0.00 2.11 1.70 91 1015.1
20260501203331 12 37 17.7 38.6 0.00 2.11 1.70 92 1015.6
20260501203042 12 34 11.3 25.7 0.00 2.11 1.70 92 1015.1
20260501202841 12 40 16.1 32.2 0.00 2.11 1.70 92 1015.6
20260501202504 12 31 12.9 32.2 0.00 2.11 1.70 92 1015.0
20260501202317 12 12 14.5 32.2 0.00 2.11 1.70 92 1015.5
20260501202056 12 10 17.7 30.6 0.00 2.11 1.70 92 1014.9
20260501201832 12 4 19.3 30.6 0.00 2.11 1.70 92 1015.4
20260501201550 12 21 16.1 30.6 0.00 2.11 1.70 92 1014.9
20260501201328 12 21 20.9 30.6 0.00 2.11 1.70 92 1015.4
20260501201043 12 23 14.5 30.6 0.00 2.11 1.70 92 1014.8
20260501200825 12 30 14.5 30.6 0.00 2.11 1.70 92 1015.3
20260501200540 12 354 17.7 27.4 0.00 2.11 1.70 92 1014.7
20260501200341 13 27 16.1 27.4 0.00 2.11 1.70 93 1015.4
20260501200003 12 66 12.9 27.4 0.00 2.77 1.70 93 1014.8
20260501195816 12 345 14.5 27.4 0.00 2.77 1.70 93 1015.4
20260501195554 12 25 17.7 27.4 0.00 2.77 1.70 93 1014.8
20260501195354 12 73 14.5 22.5 0.00 2.77 1.70 93 1015.5
20260501195016 12 60 12.9 24.1 0.00 2.77 1.70 93 1015.0
20260501194828 12 42 11.3 24.1 0.03 2.77 1.70 93 1015.7